Weather in Doncaster

United Kingdom     53°31′15″N   1°08′13″W
temp.,
°C
wind,
m/s
gust,
m/s
humid.,
%
clouds,
%
prec.,
mm/h
press.,
hPa
HPBL,
m
31 july, sat
sat3101:00+13wnw379499 0.3 1005246
04:00+14w379359 0.2 1005274
07:00+14wnw4992100 0.3 1006409
10:00+16wnw477984 0.2 1007676
13:00+19wnw566182 0.2 10071168
16:00+19wnw455966 0.0 10071290
19:00+19wnw466736 0.6 1007767
22:00+16wnw378378 0.1 1008380
1 august, sun
sun101:00+14wnw388090 0.1 1009385
04:00+13wnw388086 0.0 1009421
07:00+13nw368039 0.0 1009437
10:00+13nne3486100 0.2 1011541
13:00+13n2484100 0.6 1012458
16:00+14nne2474100 0.1 1013612
19:00+15nnw1367100 0.1 1013446
22:00+13n237669 0.0 101482
2 august, mon
mon201:00+12nne127274 0.0 1015121
04:00+11n117584 0.0 101555
07:00+12n1170100 0.0 1015105
10:00+14ene1163100 0.0 1016315
13:00+17sse115199 0.0 10151004
16:00+18e124486 0.0 10151471
19:00+18e225296 0.1 1014485
22:00+14sse247338 0.3 1015188
3 august, tue
tue301:00+13s238045 0.3 101583
04:00+12wsw118324 0.0 101531
07:00+13nw128121 0.0 1015133
10:00+17wsw01585 0.0 1015772
13:00+21s134265 0.0 10141917
16:00+20w124695 0.0 10131373
19:00+19sse1251100 0.0 1013195
22:00+17sse2559100 0.0 1013198
4 august, wed
wed401:00+16sse2669100 0.1 1013237
04:00+15sse2571100 0.0 1012208
07:00+15s2572100 0.0 1012223
10:00+17s2363100 0.1 1013391
13:00+21s344395 0.1 10121703
16:00+22ssw2340100 0.0 10112067
19:00+19sse3552100 0.0 1011456
22:00+18sse255996 0.0 1011290